When you browse on this site, cookies collect data to enhance your experience and personalize the content and advertising you see.
Visit our Privacy Policy to learn more. By continuing to use the site, you agree to this use of cookies and data.
  • In Slovakia
  • List of Countries
  • For 7 days
  • Water Temperature
  • Satellite Maps
  • Weather Map
  • Weather Widgets
  • user-avatar
    Login

    Hourly Weather Kullar

    Today, 16 June, Sunday

    Time Temperature Precipitation Wind Pressure Humidity
    00:00 +20°C° 0 mm 1 mps 753 mmHg 67%
    01:00 +20°C° 0 mm 1 mps 753 mmHg 67%
    02:00 +18°C° 0 mm 0 mps 753 mmHg 66%
    03:00 +18°C° 0 mm 0 mps 753 mmHg 67%
    04:00 +21°C° 0 mm 1 mps 753 mmHg 63%
    05:00 +22°C° 0 mm 1 mps 753 mmHg 59%
    06:00 +24°C° 0 mm 1 mps 753 mmHg 55%
    07:00 +26°C° 0 mm 1 mps 753 mmHg 50%
    08:00 +27°C° 0 mm 2 mps 753 mmHg 44%
    09:00 +29°C° 0 mm 2 mps 753 mmHg 40%
    10:00 +30°C° 0 mm 2 mps 752 mmHg 38%
    11:00 +30°C° 0 mm 3 mps 752 mmHg 36%
    12:00 +31°C° 0 mm 3 mps 752 mmHg 35%
    13:00 +31°C° 0.3 mm 3 mps 751 mmHg 38%
    14:00 +30°C° 0.3 mm 3 mps 751 mmHg 42%
    15:00 +30°C° 0 mm 2 mps 751 mmHg 45%
    16:00 +29°C° 0.2 mm 2 mps 751 mmHg 49%
    17:00 +28°C° 0.2 mm 2 mps 751 mmHg 54%
    18:00 +27°C° 0.2 mm 2 mps 751 mmHg 58%
    19:00 +26°C° 0 mm 2 mps 752 mmHg 62%
    20:00 +25°C° 0 mm 2 mps 752 mmHg 66%
    21:00 +24°C° 0 mm 2 mps 752 mmHg 70%
    22:00 +23°C° 0 mm 1 mps 751 mmHg 70%
    23:00 +23°C° 0 mm 1 mps 751 mmHg 69%

    Tomorrow, 17 June, Monday

    Time Temperature Precipitation Wind Pressure Humidity
    00:00 +23°C° 0 mm 1 mps 751 mmHg 68%
    01:00 +23°C° 0 mm 1 mps 751 mmHg 67%
    02:00 +23°C° 0 mm 1 mps 751 mmHg 66%
    03:00 +22°C° 0 mm 1 mps 751 mmHg 65%
    04:00 +24°C° 0 mm 1 mps 751 mmHg 60%
    05:00 +26°C° 0 mm 1 mps 751 mmHg 56%
    06:00 +28°C° 0 mm 1 mps 751 mmHg 51%
    07:00 +29°C° 0 mm 2 mps 751 mmHg 47%
    08:00 +30°C° 0 mm 3 mps 751 mmHg 44%
    09:00 +33°C° 0 mm 4 mps 751 mmHg 40%
    10:00 +33°C° 0 mm 4 mps 751 mmHg 40%
    11:00 +33°C° 0 mm 4 mps 751 mmHg 40%
    12:00 +34°C° 0 mm 4 mps 751 mmHg 39%
    13:00 +33°C° 0.1 mm 3 mps 751 mmHg 40%
    14:00 +31°C° 0.1 mm 3 mps 751 mmHg 40%
    15:00 +31°C° 0.1 mm 3 mps 751 mmHg 41%
    16:00 +30°C° 0.1 mm 2 mps 751 mmHg 44%
    17:00 +29°C° 0.1 mm 2 mps 751 mmHg 48%
    18:00 +29°C° 0.1 mm 2 mps 751 mmHg 52%
    19:00 +27°C° 0 mm 1 mps 751 mmHg 56%
    20:00 +26°C° 0 mm 1 mps 752 mmHg 60%
    21:00 +24°C° 0 mm 1 mps 752 mmHg 63%
    22:00 +24°C° 0 mm 2 mps 752 mmHg 61%
    23:00 +24°C° 0 mm 2 mps 752 mmHg 59%

    Day after tomorrow, 18 June, Tuesday

    Time Temperature Precipitation Wind Pressure Humidity
    00:00 +24°C° 0 mm 2 mps 752 mmHg 56%
    01:00 +24°C° 0 mm 3 mps 752 mmHg 57%
    02:00 +25°C° 0 mm 3 mps 752 mmHg 57%
    03:00 +25°C° 0 mm 3 mps 752 mmHg 57%
    04:00 +26°C° 0 mm 3 mps 753 mmHg 56%
    05:00 +27°C° 0 mm 3 mps 753 mmHg 55%
    06:00 +27°C° 0 mm 3 mps 753 mmHg 54%
    07:00 +29°C° 0 mm 3 mps 753 mmHg 47%
    08:00 +30°C° 0 mm 4 mps 753 mmHg 40%
    09:00 +33°C° 0 mm 4 mps 753 mmHg 32%
    10:00 +33°C° 0 mm 4 mps 753 mmHg 32%
    11:00 +34°C° 0 mm 4 mps 753 mmHg 31%
    12:00 +34°C° 0 mm 4 mps 753 mmHg 31%
    13:00 +34°C° 0 mm 4 mps 752 mmHg 32%
    14:00 +33°C° 0 mm 4 mps 752 mmHg 34%
    15:00 +33°C° 0 mm 4 mps 752 mmHg 35%
    16:00 +32°C° 0 mm 4 mps 752 mmHg 37%
    17:00 +30°C° 0 mm 3 mps 752 mmHg 40%
    18:00 +30°C° 0 mm 3 mps 752 mmHg 42%
    19:00 +28°C° 0 mm 3 mps 752 mmHg 47%
    20:00 +26°C° 0 mm 3 mps 752 mmHg 51%
    21:00 +24°C° 0 mm 2 mps 752 mmHg 56%
    22:00 +24°C° 0 mm 2 mps 752 mmHg 57%
    23:00 +24°C° 0 mm 2 mps 752 mmHg 58%

    19 June, Wednesday

    Time Temperature Precipitation Wind Pressure Humidity
    00:00 +23°C° 0 mm 2 mps 752 mmHg 59%
    01:00 +23°C° 0 mm 2 mps 752 mmHg 59%
    02:00 +23°C° 0 mm 2 mps 752 mmHg 58%
    03:00 +22°C° 0 mm 3 mps 752 mmHg 58%
    04:00 +25°C° 0 mm 3 mps 752 mmHg 56%
    05:00 +26°C° 0 mm 3 mps 752 mmHg 53%
    06:00 +27°C° 0 mm 3 mps 752 mmHg 51%
    07:00 +29°C° 0 mm 3 mps 752 mmHg 46%
    08:00 +30°C° 0 mm 3 mps 752 mmHg 40%
    09:00 +33°C° 0 mm 4 mps 752 mmHg 35%
    10:00 +33°C° 0 mm 4 mps 752 mmHg 34%
    11:00 +33°C° 0 mm 4 mps 752 mmHg 34%
    12:00 +34°C° 0 mm 5 mps 752 mmHg 34%
    13:00 +33°C° 0 mm 4 mps 752 mmHg 34%
    14:00 +33°C° 0 mm 4 mps 752 mmHg 34%
    15:00 +32°C° 0 mm 4 mps 752 mmHg 34%
    16:00 +30°C° 0 mm 3 mps 751 mmHg 38%
    17:00 +29°C° 0 mm 2 mps 751 mmHg 42%
    18:00 +28°C° 0 mm 2 mps 751 mmHg 46%
    19:00 +27°C° 0 mm 2 mps 751 mmHg 49%
    20:00 +26°C° 0 mm 2 mps 752 mmHg 52%
    21:00 +25°C° 0 mm 2 mps 752 mmHg 55%
    22:00 +24°C° 0 mm 2 mps 752 mmHg 57%
    23:00 +24°C° 0 mm 1 mps 752 mmHg 60%

    20 June, Thursday

    Time Temperature Precipitation Wind Pressure Humidity
    00:00 +23°C° 0 mm 1 mps 752 mmHg 62%
    01:00 +23°C° 0 mm 2 mps 752 mmHg 62%
    02:00 +23°C° 0 mm 2 mps 752 mmHg 61%
    03:00 +23°C° 0 mm 2 mps 751 mmHg 60%
    04:00 +25°C° 0 mm 2 mps 751 mmHg 57%
    05:00 +26°C° 0 mm 2 mps 752 mmHg 54%
    06:00 +28°C° 0 mm 2 mps 752 mmHg 50%
    07:00 +30°C° 0 mm 2 mps 752 mmHg 44%
    08:00 +31°C° 0 mm 3 mps 752 mmHg 38%
    09:00 +34°C° 0 mm 3 mps 752 mmHg 31%
    10:00 +34°C° 0 mm 3 mps 751 mmHg 30%
    11:00 +35°C° 0 mm 4 mps 751 mmHg 29%
    12:00 +35°C° 0 mm 4 mps 751 mmHg 29%
    13:00 +35°C° 0 mm 4 mps 751 mmHg 30%
    14:00 +34°C° 0 mm 4 mps 751 mmHg 31%
    15:00 +34°C° 0 mm 3 mps 750 mmHg 32%
    16:00 +33°C° 0 mm 3 mps 750 mmHg 36%
    17:00 +31°C° 0 mm 3 mps 751 mmHg 40%
    18:00 +30°C° 0 mm 3 mps 751 mmHg 44%
    19:00 +28°C° 0 mm 3 mps 751 mmHg 50%
    20:00 +26°C° 0 mm 2 mps 751 mmHg 56%
    21:00 +24°C° 0 mm 2 mps 752 mmHg 62%
    22:00 +24°C° 0 mm 2 mps 752 mmHg 62%
    23:00 +24°C° 0 mm 2 mps 752 mmHg 61%

    21 June, Friday

    Time Temperature Precipitation Wind Pressure Humidity
    00:00 +23°C° 0 mm 2 mps 752 mmHg 61%
    01:00 +24°C° 0 mm 2 mps 752 mmHg 60%
    02:00 +24°C° 0 mm 3 mps 752 mmHg 59%
    03:00 +24°C° 0 mm 3 mps 752 mmHg 58%
    04:00 +25°C° 0 mm 3 mps 752 mmHg 55%
    05:00 +26°C° 0 mm 2 mps 752 mmHg 52%
    06:00 +27°C° 0 mm 2 mps 752 mmHg 50%
    07:00 +28°C° 0 mm 3 mps 753 mmHg 44%
    08:00 +30°C° 0 mm 3 mps 753 mmHg 39%
    09:00 +31°C° 0 mm 3 mps 753 mmHg 34%
    10:00 +33°C° 0 mm 3 mps 753 mmHg 33%
    11:00 +33°C° 0 mm 4 mps 753 mmHg 32%
    12:00 +34°C° 0 mm 4 mps 753 mmHg 30%
    13:00 +33°C° 0 mm 4 mps 753 mmHg 33%
    14:00 +33°C° 0 mm 4 mps 753 mmHg 35%
    15:00 +32°C° 0 mm 4 mps 753 mmHg 37%
    16:00 +30°C° 0 mm 3 mps 753 mmHg 40%
    17:00 +30°C° 0 mm 2 mps 753 mmHg 43%
    18:00 +29°C° 0 mm 2 mps 753 mmHg 45%
    19:00 +27°C° 0 mm 2 mps 754 mmHg 51%
    20:00 +25°C° 0 mm 2 mps 754 mmHg 56%
    21:00 +24°C° 0 mm 2 mps 754 mmHg 62%
    22:00 +23°C° 0 mm 2 mps 754 mmHg 61%
    23:00 +23°C° 0 mm 2 mps 754 mmHg 60%
    Show more